Flag for Egypt Weather past 2 weeks in Al Jizah, Egypt

Now
77 °F

Clear.


Feels Like: 79 °F
Forecast: 72 / 100 °F
Wind: 2 mph from Northeast

Location: Cairo Airport

Current Time: Aug 21, 2014 at 5:49:54 AM

Latest Report: Aug 21, 2014 at 5:00 AM


Visibility: 10 mi

Pressure: 29.92 "Hg

Humidity: 74%

Dew point: 68 °F

Location of Al JizahLocation

Historic Weather in Al Jizah — Graph

°F

Al Jizah temperature yesterday

Maximum temperature yesterday: 93 °F (at 3:00 PM)
Minimum temperature yesterday: 75 °F (at 5:00 AM)
Average temperature yesterday: 84 °F

Past Weeks' High & Low Weather Summary

 TemperatureHumidityPressure
High99 °F (Aug 6, 3:00 PM)94% (Aug 16, 7:30 AM)29.98 "Hg (Aug 16, 7:30 AM)
Low75 °F (Aug 8, 6:30 AM)15% (Aug 12, 4:00 PM)29.65 "Hg (Aug 17, 3:00 PM)
Average85 °F55%29.80 "Hg
* Reported Aug 6 5:00 AM — Aug 21 5:00 AM, Al Jizah, Weather by CustomWeather, © 2014

Note: Actual official high and low records may vary slightly from our data, if they occured in-between our weather recording intervals... More about our weather records

Advertising

Al Jizah weather history for previous 24 hours

 ConditionsComfort  
Time TempWeatherWind HumidityBarometerVisibility
5:00 AM
Aug 21
77 °FClear.2 mph74%29.92 "Hg10 mi
4:30 AM77 °FClear.3 mph79%29.92 "Hg10 mi
4:00 AM77 °FClear.5 mph79%29.92 "Hg10 mi
3:30 AM79 °FClear.6 mph70%29.92 "Hg10 mi
3:00 AM79 °FClear.6 mph70%29.92 "Hg10 mi
2:30 AM79 °FClear.6 mph70%29.92 "Hg10 mi
2:00 AM79 °FClear.6 mph70%29.92 "Hg10 mi
1:30 AM81 °FClear.7 mph66%29.92 "Hg10 mi
1:00 AM81 °FClear.7 mph66%29.95 "Hg10 mi
12:30 AM81 °FClear.12 mph66%29.95 "Hg10 mi
12:00 AM81 °FClear.12 mph66%29.95 "Hg10 mi
11:30 PM
Aug 20
81 °FClear.10 mph70%29.95 "Hg10 mi
11:00 PM81 °FClear.10 mph74%29.95 "Hg10 mi
10:30 PM82 °FClear.10 mph70%29.95 "Hg10 mi
10:00 PM82 °FClear.12 mph70%29.95 "Hg10 mi
9:30 PM84 °FClear.10 mph62%29.92 "Hg10 mi
9:00 PM86 °FClear.9 mph49%29.92 "Hg10 mi
8:30 PM86 °FClear.9 mph46%29.89 "Hg10 mi
7:50 PM88 °FClear.7 mph43%29.89 "Hg10 mi
7:30 PM90 °FSunny.14 mph38%29.89 "Hg10 mi
7:00 PM90 °FSunny.12 mph38%29.89 "Hg10 mi
6:00 PM91 °FSunny.15 mph32%29.89 "Hg10 mi
5:30 PM90 °FClear.10 mph33%29.89 "Hg4 mi
5:00 PM91 °FClear.10 mph36%29.89 "Hg4 mi
4:30 PM91 °FClear.8 mph38%29.89 "Hg4 mi
4:00 PM91 °FSunny.9 mph36%29.89 "Hg10 mi
3:30 PM93 °FSunny.3 mph34%29.89 "Hg10 mi
3:00 PM93 °FSunny.8 mph30%29.89 "Hg10 mi
2:30 PM91 °FSunny.8 mph28%29.92 "Hg10 mi
2:00 PM91 °FSunny.8 mph28%29.92 "Hg10 mi
1:30 PM91 °FSunny.2 mph28%29.92 "Hg10 mi
1:00 PM91 °FSunny.No wind28%29.92 "Hg10 mi
12:30 PM90 °FSunny.5 mph31%29.92 "Hg10 mi
11:30 AM88 °FSunny.2 mph38%29.95 "Hg10 mi
11:00 AM86 °FSunny.3 mph43%29.95 "Hg10 mi
10:30 AM86 °FSunny.No wind46%29.95 "Hg10 mi
10:00 AM82 °FSunny.7 mph55%29.95 "Hg10 mi
9:30 AM82 °FSunny.No wind55%29.95 "Hg10 mi
9:00 AM81 °FWarm.37 mph58%29.95 "HgN/A
8:30 AM81 °FSunny.6 mph58%29.95 "Hg10 mi
8:00 AM79 °FSunny.6 mph61%29.98 "Hg10 mi
7:30 AM79 °FSunny.2 mph61%29.95 "Hg10 mi
7:00 AM77 °FSunny.No wind65%29.95 "Hg10 mi
6:30 AM77 °FSunny.2 mph65%29.92 "Hg10 mi
6:00 AM77 °FClear.2 mph65%29.92 "Hg10 mi
5:30 AM75 °FClear.8 mph69%29.92 "Hg10 mi
5:00 AM75 °FClear.8 mph69%29.92 "Hg10 mi
Weather by CustomWeather, © 2014

See weather overviewHow to use our weather pages